Regional Weather Roundup
Issued by NWS

Home | Current Version | Previous Version | Graphics & Text | Print | Product List | Glossary On
Versions: 1 2 3 4 5 6 7 8 9 10 11 12 13 14 15 16 17 18 19 20 21 22 23 24 25 26 27 28 29 30 31 32 33 34 35 36 37 38 39 40 41 42 43 44 45 46 47 48 49 50
000
ASUS43 KLMK 231202
RWRKY
KENTUCKY REGIONAL WEATHER ROUNDUP
NATIONAL WEATHER SERVICE LOUISVILLE KY
800 AM EDT SUN APR 23 2017

NOTE "FAIR" INDICATES FEW OR NO CLOUDS BELOW 12,000 FEET
WITH NO SIGNIFICANT WEATHER AND/OR OBSTRUCTIONS TO VISIBILITY.

KYZ001>023-026-027-061>063-070>075-231300-
WESTERN AND SOUTH CENTRAL KENTUCKY

CITY           SKY/WX    TMP DP  RH WIND       PRES   REMARKS
PADUCAH        CLOUDY    49  38  65 N15       29.95R
HENDERSON      MOCLDY    47  38  71 N14       29.98R
OWENSBORO      PTSUNNY   48  39  71 NE10      29.97R
HOPKINSVILLE   CLOUDY    48  46  95 N14       29.88S
BOWLING GREEN  CLOUDY    49  47  93 NE9       29.89R
GLASGOW        NOT AVBL
$$

KYZ024-025-028>034-038-045-046-053-231300-
NORTH CENTRAL KENTUCKY

CITY           SKY/WX    TMP DP  RH WIND       PRES   REMARKS
LOUISVILLE/SDF CLOUDY    47  37  68 NE13      29.97R
LOUISVILLE/LOU CLOUDY    47  36  65 NE9G17    29.98R
FORT KNOX      PTSUNNY   46  38  74 NE9       29.93R
$$

KYZ035>037-039>044-047>052-055>060-089>105-231300-
NORTHEAST KENTUCKY

CITY           SKY/WX    TMP DP  RH WIND       PRES   REMARKS
LEXINGTON      CLOUDY    45  37  73 NE16      29.95R
COVINGTON      MOSUNNY   45  36  70 NE16      30.02R
FRANKFORT      CLOUDY    46  35  65 NE12      29.95S
$$

KYZ054-064>069-076>088-106>120-231300-
SOUTHEAST KENTUCKY

CITY           SKY/WX    TMP DP  RH WIND       PRES   REMARKS
JACKSON        CLOUDY    46  43  89 CALM      29.94R
LONDON         RAIN      47  45  93 N9        29.91R FOG
SOMERSET       RAIN      46  46 100 E7        29.92S
MIDDLESBORO    RAIN      51  51 100 CALM      29.88R
MONTICELLO     RAIN      48  47  96 N6G18     29.91R
$$




USA.gov is the U.S. government's official web portal to all federal, state and local government web resources and services.